Regional Weather Roundup
Issued by NWS

Home | Current Version | Previous Version | Graphics & Text | Print | Product List | Glossary Off
Versions: 1 2 3 4 5 6 7 8 9 10 11 12 13 14 15 16 17 18 19 20 21 22 23 24 25 26 27 28 29 30 31 32 33 34 35 36 37 38 39 40 41 42 43 44 45 46 47 48 49 50

000
ASUS43 KTOP 300808
RWRKS

WEATHER ROUNDUP FOR KANSAS
NATIONAL WEATHER SERVICE GOODLAND KS
300 AM CDT SAT MAY 30 2015

NOTE:  "FAIR" INDICATES FEW OR NO CLOUDS BELOW 12,000 FEET WITH NO
SIGNIFICANT WEATHER AND/OR OBSTRUCTIONS TO VISIBILITY.

KSZ001>006-013>018-027>032-041>047-300900-
NORTHWEST KANSAS

CITY           SKY/WX    TMP DP  RH WIND       PRES   REMARKS
GOODLAND       CLOUDY    49  46  90 N10       30.29F
HAYS           CLOUDY    54  43  66 N20G31    30.20R
HILL CITY      CLOUDY    52  46  80 N15       30.24R
RUSSELL        CLOUDY    53  49  86 N21       30.17R
$$

KSZ061>065-074>080-084>089-300900-
SOUTHWEST KANSAS

CITY           SKY/WX    TMP DP  RH WIND       PRES   REMARKS
DODGE CITY     CLOUDY    54  48  80 N21       30.20S
ELKHART          N/A     54  47  77 N12         N/A
GARDEN CITY    CLOUDY    53  48  83 N16G24    30.23R
GREAT BEND     CLOUDY    54  46  76 N17G25    30.17S
LIBERAL        PTCLDY    55  48  76 N17       30.21F
PRATT          CLOUDY    54  50  87 N20G25    30.16S
$$

KSZ066>073-081>083-090>101-300900-
SOUTHEAST KANSAS

CITY           SKY/WX    TMP DP  RH WIND       PRES   REMARKS
CHANUTE        CLOUDY    61  61 100 NW5       29.98S FOG
COFFEYVILLE    CLOUDY    63  63 100 CALM      29.97R
HUTCHINSON     CLOUDY    58  51  78 N14G25    30.11R
MEDICINE LODGE   N/A     58  54  86 N13G24    30.11R
NEWTON         CLOUDY    55  48  76 N16G24    30.10R
PARSONS        FOG       62  62 100 CALM      29.99S VSB 1/2
WICHITA INTL   CLOUDY    61  55  81 N15G24    30.07R
WICHITA JABRA  CLOUDY    59  55  87 NW17G24   30.06R
WICHITA MCCONL CLOUDY    60  56  85 NW20G26   30.06R
WINFIELD       PTCLDY    61  58  90 N12       30.05R
$$

KSZ007>012-019>026-033>040-048>060-102>105-300900-
NORTHEAST KANSAS

CITY           SKY/WX    TMP DP  RH WIND       PRES   REMARKS
CONCORDIA      CLOUDY    52  48  86 N15       30.14R
EMPORIA        CLOUDY    61  59  93 NW14      30.02S
LAWRENCE       CLOUDY    64  62  93 NW13      29.98R
MANHATTAN      CLOUDY    58  53  84 N9G18     30.08R
MARYSVILLE     CLOUDY    54  52  94 N17G25    30.08R
OLATHE IND     CLOUDY    63  63 100 W5        29.97F
OLATHE EXE     CLOUDY    64  64 100 W5        29.96S
SALINA         CLOUDY    55  50  83 N24G32    30.13R
TOPEKA BILLARD CLOUDY    62  60  93 NW12      30.01R
TOPEKA FORBES  CLOUDY    63  59  87 NW15      30.00R FOG
$$



USA.gov is the U.S. government's official web portal to all federal, state and local government web resources and services.